H1 CPF 2 NER 2025 11 18 9 322 01 glonass135 H2 1600801 9135 41330 2025 11 18 0 0 0 2025 11 21 23 45 0 900 1 1 0 0 0 1 H9 10 0 60997 0.00000 0 -10616129.210 1528534.792 -23127510.825 10 0 60997 900.00000 0 -11069709.114 -1282508.552 -22933083.742 10 0 60997 1800.00000 0 -11718855.409 -4001627.991 -22292737.854 10 0 60997 2700.00000 0 -12537453.993 -6563625.349 -21219114.196 10 0 60997 3600.00000 0 -13488696.755 -8909865.386 -19733261.876 10 0 60997 4500.00000 0 -14526648.000 -10990461.674 -17864215.229 10 0 60997 5400.00000 0 -15598210.527 -12766094.773 -15648417.733 10 0 60997 6300.00000 0 -16645408.054 -14209389.000 -13129004.553 10 0 60997 7200.00000 0 -17607887.596 -15305792.661 -10354958.186 10 0 60997 8100.00000 0 -18425536.481 -16053927.416 -7380153.900 10 0 60997 9000.00000 0 -19041104.167 -16465394.575 -4262313.624 10 0 60997 9900.00000 0 -19402718.955 -16564048.612 -1061888.584 10 0 60997 10800.00000 0 -19466194.356 -16384770.277 2159107.785 10 0 60997 11700.00000 0 -19197028.737 -15971792.244 5338294.433 10 0 60997 12600.00000 0 -18572014.759 -15376648.620 8414122.034 10 0 60997 13500.00000 0 -17580391.402 -14655834.994 11327054.523 10 0 60997 14400.00000 0 -16224490.312 -13868277.399 14020710.738 10 0 60997 15300.00000 0 -14519849.140 -13072716.231 16442944.935 10 0 60997 16200.00000 0 -12494786.442 -12325114.439 18546846.260 10 0 60997 17100.00000 0 -10189454.742 -11676198.068 20291638.829 10 0 60997 18000.00000 0 -7654409.794 -11169231.709 21643465.879 10 0 60997 18900.00000 0 -4948753.756 -10838121.608 22576043.588 10 0 60997 19800.00000 0 -2137927.436 -10705925.738 23071172.395 10 0 60997 20700.00000 0 708758.773 -10783833.449 23119096.030 10 0 60997 21600.00000 0 3520754.849 -11070658.049 22718701.101 10 0 60997 22500.00000 0 6228954.698 -11552864.586 21877552.671 10 0 60997 23400.00000 0 8768323.407 -12205133.048 20611764.109 10 0 60997 24300.00000 0 11080360.159 -12991434.915 18945702.354 10 0 60997 25200.00000 0 13115295.026 -13866579.493 16911532.767 10 0 60997 26100.00000 0 14833928.297 -14778166.545 14548610.756 10 0 60997 27000.00000 0 16209035.392 -15668864.175 11902730.518 10 0 60997 27900.00000 0 17226278.164 -16478916.741 9025244.180 10 0 60997 28800.00000 0 17884583.780 -17148777.071 5972067.683 10 0 60997 29700.00000 0 18195974.761 -17621751.371 2802592.347 10 0 60997 30600.00000 0 18184856.969 -17846543.927 -421476.555 10 0 60997 31500.00000 0 17886795.552 -17779592.440 -3637330.862 10 0 60997 32400.00000 0 17346830.893 -17387093.329 -6782295.574 10 0 60997 33300.00000 0 16617406.542 -16646629.290 -9795064.373 10 0 60997 34200.00000 0 15755997.928 -15548328.373 -12616908.920 10 0 60997 35100.00000 0 14822543.625 -14095503.869 -15192836.835 10 0 60997 36000.00000 0 13876789.373 -12304746.631 -17472674.369 10 0 60997 36900.00000 0 12975658.697 -10205465.038 -19412051.591 10 0 60997 37800.00000 0 12170762.543 -7838891.439 -20973270.202 10 0 60997 38700.00000 0 11506153.979 -5256596.693 -22126036.834 10 0 60997 39600.00000 0 11016423.202 -2518575.245 -22848047.742 10 0 60997 40500.00000 0 10725213.057 309018.836 -23125414.058 10 0 60997 41400.00000 0 10644217.073 3156389.990 -22952920.231 10 0 60997 42300.00000 0 10772701.207 5952768.278 -22334111.626 10 0 60997 43200.00000 0 11097568.126 8629114.449 -21281210.754 10 0 60997 44100.00000 0 11593959.871 11120750.856 -19814864.869 10 0 60997 45000.00000 0 12226372.061 13369809.567 -17963730.831 10 0 60997 45900.00000 0 12950231.406 15327397.082 -15763906.240 10 0 60997 46800.00000 0 13713869.012 16955387.227 -13258218.520 10 0 60997 47700.00000 0 14460805.602 18227769.445 -10495386.343 10 0 60997 48600.00000 0 15132251.927 19131498.418 -7529069.979 10 0 60997 49500.00000 0 15669718.962 19666811.806 -4416829.151 10 0 60997 50400.00000 0 16017628.070 19847004.913 -1219008.647 10 0 60997 51300.00000 0 16125811.597 19697673.700 2002426.866 10 0 60997 52200.00000 0 15951799.097 19255459.442 5185086.598 10 0 60997 53100.00000 0 15462793.491 18566348.852 8267353.247 10 0 60997 54000.00000 0 14637254.408 17683601.703 11189565.888 10 0 60997 54900.00000 0 13466022.387 16665393.132 13895164.048 10 0 60997 55800.00000 0 11952936.536 15572269.387 16331771.658 10 0 60997 56700.00000 0 10114919.207 14464523.173 18452200.911 10 0 60997 57600.00000 0 7981523.071 13399597.905 20215357.591 10 0 60997 58500.00000 0 5593958.038 12429628.792 21587031.236 10 0 60997 59400.00000 0 3003636.744 11599222.957 22540555.621 10 0 60997 60300.00000 0 270296.982 10943570.908 23057327.266 10 0 60997 61200.00000 0 -2540223.104 10486968.159 23127172.093 10 0 60997 62100.00000 0 -5358466.920 10241808.915 22748552.889 10 0 60997 63000.00000 0 -8113997.485 10208094.469 21928612.949 10 0 60997 63900.00000 0 -10738083.871 10373477.747 20683053.976 10 0 60997 64800.00000 0 -13166325.797 10713843.263 19035849.305 10 0 60997 65700.00000 0 -15341108.089 11194399.450 17018796.421 10 0 60997 66600.00000 0 -17213783.146 11771238.729 14670915.863 10 0 60997 67500.00000 0 -18746490.276 12393300.758 12037706.654 10 0 60997 68400.00000 0 -19913535.373 13004656.852 9170271.446 10 0 60997 69300.00000 0 -20702272.448 13547019.425 6124327.534 10 0 60997 70200.00000 0 -21113449.278 13962370.128 2959122.568 10 0 60997 71100.00000 0 -21161001.972 14195594.604 -263723.806 10 0 60997 72000.00000 0 -20871306.733 14197010.992 -3481429.145 10 0 60997 72900.00000 0 -20281920.378 13924683.302 -6631283.594 10 0 60997 73800.00000 0 -19439863.216 13346419.708 -9651886.019 10 0 60997 74700.00000 0 -18399517.704 12441369.119 -12484355.147 10 0 60997 75600.00000 0 -17220232.849 11201146.587 -15073490.582 10 0 60997 76500.00000 0 -15963737.024 9630438.364 -17368859.662 10 0 60997 77400.00000 0 -14691469.896 7747059.834 -19325787.865 10 0 60997 78300.00000 0 -13461947.418 5581463.043 -20906232.780 10 0 60997 79200.00000 0 -12328271.988 3175714.083 -22079524.346 10 0 60997 80100.00000 0 -11335893.292 581983.173 -22822957.111 10 0 60997 81000.00000 0 -10520714.113 -2139389.218 -23122223.536 10 0 60997 81900.00000 0 -9907620.295 -4922169.117 -22971680.746 10 0 60997 82800.00000 0 -9509495.682 -7696753.421 -22374446.571 10 0 60997 83700.00000 0 -9326761.982 -10392836.608 -21342324.153 10 0 60997 84600.00000 0 -9347461.206 -12942108.957 -19895557.677 10 0 60997 85500.00000 0 -9547875.377 -15280874.484 -18062425.029 10 0 60998 0.00000 0 -9893655.623 -17352480.359 -15878676.377 10 0 60998 900.00000 0 -10341411.735 -19109459.038 -13386829.055 10 0 60998 1800.00000 0 -10840693.469 -20515292.718 -10635336.009 10 0 60998 2700.00000 0 -11336279.798 -21545732.094 -7677640.352 10 0 60998 3600.00000 0 -11770678.658 -22189613.522 -4571137.418 10 0 60998 4500.00000 0 -12086731.754 -22449143.574 -1376063.355 10 0 60998 5400.00000 0 -12230214.737 -22339640.719 1845668.150 10 0 60998 6300.00000 0 -12152323.455 -21888746.593 5031658.800 10 0 60998 7200.00000 0 -11811941.955 -21135141.080 8120225.578 10 0 60998 8100.00000 0 -11177597.142 -20126815.923 11051585.004 10 0 60998 9000.00000 0 -10229018.122 -18918979.557 13768999.594 10 0 60998 9900.00000 0 -8958234.631 -17571680.885 16219865.210 10 0 60998 10800.00000 0 -7370168.089 -16147251.071 18356719.245 10 0 60998 11700.00000 0 -5482689.583 -14707669.682 20138151.125 10 0 60998 12600.00000 0 -3326141.058 -13311964.433 21529598.421 10 0 60998 13500.00000 0 -942337.906 -12013752.315 22504013.936 10 0 60998 14400.00000 0 1616907.608 -10859023.950 23042391.388 10 0 60998 15300.00000 0 4291682.955 -9884263.136 23134139.645 10 0 60998 16200.00000 0 7016215.531 -9114979.786 22777298.099 10 0 60998 17100.00000 0 9721365.665 -8564717.585 21978588.357 10 0 60998 18000.00000 0 12337270.845 -8234578.270 20753300.226 10 0 60998 18900.00000 0 14796032.913 -8113283.126 19125012.888 10 0 60998 19800.00000 0 17034337.556 -8177770.048 17125155.097 10 0 60998 20700.00000 0 18995897.516 -8394302.076 14792411.329 10 0 60998 21600.00000 0 20633617.648 -8720041.725 12171983.896 10 0 60998 22500.00000 0 21911390.896 -9105025.468 9314724.065 10 0 60998 23400.00000 0 22805449.203 -9494455.350 6276148.192 10 0 60998 24300.00000 0 23305211.748 -9831210.749 3115357.614 10 0 60998 25200.00000 0 23413593.927 -10058473.301 -106116.602 10 0 60998 26100.00000 0 23146763.347 -10122352.623 -3325520.886 10 0 60998 27000.00000 0 22533352.683 -9974399.962 -6480113.805 10 0 60998 27900.00000 0 21613162.651 -9573901.321 -9508402.658 10 0 60998 28800.00000 0 20435410.263 -8889850.844 -12351356.374 10 0 60998 29700.00000 0 19056597.220 -7902518.918 -14953569.469 10 0 60998 30600.00000 0 17538089.551 -6604546.836 -17264353.040 10 0 60998 31500.00000 0 15943511.932 -5001520.288 -19238730.340 10 0 60998 32400.00000 0 14336067.816 -3111996.421 -20838316.868 10 0 60998 33300.00000 0 12775899.276 -966982.576 -22032067.527 10 0 60998 34200.00000 0 11317598.395 1391111.672 -22796876.427 10 0 60998 35100.00000 0 10007974.956 3910005.298 -23118018.197 10 0 60998 36000.00000 0 8884173.879 6529495.203 -22989423.053 10 0 60998 36900.00000 0 7972220.472 9183742.503 -22413781.263 10 0 60998 37800.00000 0 7286053.149 11803800.157 -21402476.139 10 0 60998 38700.00000 0 6827082.351 14320276.616 -19975347.935 10 0 60998 39600.00000 0 6584292.147 16666024.725 -18160294.300 10 0 60998 40500.00000 0 6534878.084 18778744.493 -15992715.929 10 0 60998 41400.00000 0 6645392.428 20603392.222 -13514818.889 10 0 60998 42300.00000 0 6873346.824 22094296.774 -10774787.743 10 0 60998 43200.00000 0 7169203.403 23216896.242 -7825845.863 10 0 60998 44100.00000 0 7478669.425 23949024.188 -4725221.353 10 0 60998 45000.00000 0 7745198.079 24281693.434 -1533038.690 10 0 60998 45900.00000 0 7912589.746 24219346.331 1688842.563 10 0 60998 46800.00000 0 7927584.119 23779562.551 4878019.773 10 0 60998 47700.00000 0 7742334.172 22992237.839 7972747.325 10 0 60998 48600.00000 0 7316658.100 21898268.968 10913122.140 10 0 60998 49500.00000 0 6619974.713 20547800.390 13642232.480 10 0 60998 50400.00000 0 5632841.009 18998105.940 16107248.639 10 0 60998 51300.00000 0 4348027.094 17311193.819 18260435.430 10 0 60998 52200.00000 0 2771082.749 15551234.192 20060067.841 10 0 60998 53100.00000 0 920370.802 13781915.897 21471233.077 10 0 60998 54000.00000 0 -1173435.657 12063841.503 22466504.232 10 0 60998 54900.00000 0 -3468373.259 10452068.306 23026473.109 10 0 60998 55800.00000 0 -5912685.271 8993896.883 23140132.008 10 0 60998 56700.00000 0 -8446735.582 7726998.738 22805096.968 10 0 60998 57600.00000 0 -11005262.597 6677960.761 22027667.465 10 0 60998 58500.00000 0 -13519881.439 5861307.243 20822720.473 10 0 60998 59400.00000 0 -15921732.299 5279040.595 19213439.575 10 0 60998 60300.00000 0 -18144166.010 4920720.550 17230882.863 10 0 60998 61200.00000 0 -20125355.743 4764079.230 14913396.398 10 0 60998 62100.00000 0 -21810726.017 4776146.959 12305883.082 10 0 60998 63000.00000 0 -23155097.162 4914842.024 9458939.840 10 0 60998 63900.00000 0 -24124454.648 5130957.686 6427878.994 10 0 60998 64800.00000 0 -24697267.958 5370462.404 3271652.420 10 0 60998 65700.00000 0 -24865302.462 5577015.448 51699.481 10 0 60998 66600.00000 0 -24633888.984 5694590.329 -3169258.174 10 0 60998 67500.00000 0 -24021638.908 5670093.400 -6328450.461 10 0 60998 68400.00000 0 -23059616.382 5455864.797 -9364295.921 10 0 60998 69300.00000 0 -21790002.526 5011953.722 -12217616.318 10 0 60998 70200.00000 0 -20264308.499 4308069.613 -14832803.518 10 0 60998 71100.00000 0 -18541213.572 3325124.720 -17158914.529 10 0 60998 72000.00000 0 -16684120.463 2056301.204 -19150672.200 10 0 60998 72900.00000 0 -14758532.016 507596.455 -20769351.340 10 0 60998 73800.00000 0 -12829360.660 -1302177.283 -21983532.749 10 0 60998 74700.00000 0 -10958284.463 -3341939.437 -22769710.523 10 0 60998 75600.00000 0 -9201261.155 -5569411.007 -23112741.388 10 0 60998 76500.00000 0 -7606304.132 -7932662.954 -23006128.086 10 0 60998 77400.00000 0 -6211612.959 -10372078.020 -22452132.319 10 0 60998 78300.00000 0 -5044135.338 -12822643.789 -21461716.176 10 0 60998 79200.00000 0 -4118618.996 -15216481.106 -20054314.261 10 0 60998 80100.00000 0 -3437191.100 -17485502.393 -18257442.006 10 0 60998 81000.00000 0 -2989480.467 -19564089.295 -16106148.672 10 0 60998 81900.00000 0 -2753275.067 -21391678.576 -13642326.380 10 0 60998 82800.00000 0 -2695684.994 -22915149.237 -10913889.160 10 0 60998 83700.00000 0 -2774760.040 -24090912.378 -7973838.324 10 0 60998 84600.00000 0 -2941492.236 -24886617.870 -4879232.487 10 0 60998 85500.00000 0 -3142117.905 -25282407.932 -1690082.270 10 0 60999 0.00000 0 -3320621.502 -25271666.696 1531808.694 10 0 60999 900.00000 0 -3421335.510 -24861235.638 4724036.054 10 0 60999 1800.00000 0 -3391526.607 -24071087.123 7824793.283 10 0 60999 2700.00000 0 -3183859.666 -22933470.482 10774059.651 10 0 60999 3600.00000 0 -2758635.887 -21491566.722 13514751.060 10 0 60999 4500.00000 0 -2085711.188 -19797708.225 15993814.074 10 0 60999 5400.00000 0 -1146014.207 -17911237.386 18163242.646 10 0 60999 6300.00000 0 67400.165 -15896092.899 19980998.895 10 0 60999 7200.00000 0 1548806.676 -13818223.306 21411821.019 10 0 60999 8100.00000 0 3279799.068 -11742934.446 22427903.512 10 0 60999 9000.00000 0 5229815.083 -9732280.030 23009437.084 10 0 60999 9900.00000 0 7357177.297 -7842602.796 23144998.010 10 0 60999 10800.00000 0 9610608.750 -6122327.650 22831779.207 10 0 60999 11700.00000 0 11931162.697 -4610097.940 22075657.990 10 0 60999 12600.00000 0 14254488.399 -3333332.174 20891098.184 10 0 60999 13500.00000 0 16513340.671 -2307261.327 19300887.211 10 0 60999 14400.00000 0 18640230.190 -1534487.160 17335711.685 10 0 60999 15300.00000 0 20570105.057 -1005080.531 15033578.169 10 0 60999 16200.00000 0 22242952.036 -697216.056 12439088.789 10 0 60999 17100.00000 0 23606208.490 -578316.965 9602584.461 10 0 60999 18000.00000 0 24616883.232 -606662.200 6579171.482 10 0 60999 18900.00000 0 25243296.183 -733387.950 3427649.955 10 0 60999 19800.00000 0 25466362.381 -904798.560 209364.945 10 0 60999 20700.00000 0 25280364.924 -1064888.156 -3012996.652 10 0 60999 21600.00000 0 24693183.087 -1157964.820 -6176639.066 10 0 60999 22500.00000 0 23725965.096 -1131264.417 -9219895.083 10 0 60999 23400.00000 0 22412258.885 -937441.348 -12083442.232 10 0 60999 24300.00000 0 20796637.501 -536828.668 -14711472.501 10 0 60999 25200.00000 0 18932877.492 100630.088 -17052791.371 10 0 60999 26100.00000 0 16881767.787 993860.828 -19061823.577 10 0 60999 27000.00000 0 14708642.216 2149616.195 -20699505.270 10 0 60999 27900.00000 0 12480740.324 3561955.239 -21934044.881 10 0 60999 28800.00000 0 10264508.088 5212268.011 -22741537.929 10 0 60999 29700.00000 0 8122952.185 7069844.267 -23106424.339 10 0 60999 30600.00000 0 6113158.595 9092962.408 -23021780.116 10 0 60999 31500.00000 0 4284078.902 11230452.740 -22489438.739 10 0 60999 32400.00000 0 2674675.742 13423669.284 -21519940.990 10 0 60999 33300.00000 0 1312503.321 15608787.430 -20132315.296 10 0 60999 34200.00000 0 212780.338 17719331.176 -18353693.913 10 0 60999 35100.00000 0 -622008.303 19688824.449 -16218773.285 10 0 60999 36000.00000 0 -1201966.830 21453456.047 -13769129.796 10 0 60999 36900.00000 0 -1549109.552 22954647.406 -11052404.785 10 0 60999 37800.00000 0 -1696178.235 24141416.706 -8121375.023 10 0 60999 38700.00000 0 -1685007.622 24972441.506 -5032926.868 10 0 60999 39600.00000 0 -1564509.408 25417734.791 -1846954.118 10 0 60999 40500.00000 0 -1388360.695 25459865.505 1374799.229 10 0 60999 41400.00000 0 -1212494.924 25094673.644 4569929.122 10 0 60999 42300.00000 0 -1092501.296 24331450.963 7676571.867 10 0 60999 43200.00000 0 -1081042.148 23192580.453 10634592.145 10 0 60999 44100.00000 0 -1225396.833 21712650.051 13386736.419 10 0 60999 45000.00000 0 -1565235.162 19937077.624 15879730.222 10 0 60999 45900.00000 0 -2130713.848 17920304.239 18065299.109 10 0 60999 46800.00000 0 -2940975.982 15723630.301 19901094.507 10 0 60999 47700.00000 0 -4003116.907 13412783.681 21351507.484 10 0 60999 48600.00000 0 -5311660.714 11055319.754 22388355.477 10 0 60999 49500.00000 0 -6848570.603 8717960.095 22991429.279 10 0 60999 50400.00000 0 -8583794.476 6463979.126 23148889.886 10 0 60999 51300.00000 0 -10476325.100 4350746.107 22857507.398 10 0 60999 52200.00000 0 -12475732.930 2427523.633 22122736.751 10 0 60999 53100.00000 0 -14524109.983 733613.583 20958627.886 10 0 60999 54000.00000 0 -16558345.833 -703072.646 19387570.772 10 0 60999 54900.00000 0 -18512642.553 -1866960.025 17439878.727 10 0 60999 55800.00000 0 -20321164.832 -2755232.142 15153216.511 10 0 60999 56700.00000 0 -21920715.137 -3377711.768 12571882.745 10 0 60999 57600.00000 0 -23253321.968 -3756204.354 9745959.283 10 0 60999 58500.00000 0 -24268632.085 -3923331.766 6730343.115 10 0 60999 59400.00000 0 -24926005.197 -3920905.366 3583679.176 10 0 60999 60300.00000 0 -25196221.606 -3797907.430 367214.794 10 0 60999 61200.00000 0 -25062729.332 -3608166.976 -2856401.273 10 0 60999 62100.00000 0 -24522376.639 -3407829.549 -6024350.863 10 0 60999 63000.00000 0 -23585597.772 -3252729.682 -9074884.155 10 0 60999 63900.00000 0 -22276043.120 -3195779.186 -11948537.418 10 0 60999 64800.00000 0 -20629668.924 -3284483.890 -14589305.506 10 0 60999 65700.00000 0 -18693324.843 -3558695.933 -16945744.810 10 0 60999 66600.00000 0 -16522899.234 -4048698.481 -18971984.017 10 0 60999 67500.00000 0 -14181100.820 -4773705.308 -20628622.205 10 0 60999 68400.00000 0 -11734970.675 -5740839.644 -21883496.475 10 0 60999 69300.00000 0 -9253229.695 -6944636.041 -22712304.212 10 0 60999 70200.00000 0 -6803573.154 -8367086.463 -23099068.359 10 0 60999 71100.00000 0 -4450025.689 -9978228.638 -23036437.431 10 0 60999 72000.00000 0 -2250467.007 -11737251.647 -22525815.389 10 0 60999 72900.00000 0 -254430.780 -13594071.939 -21577319.964 10 0 60999 73800.00000 0 1498732.745 -15491313.301 -20209571.298 10 0 60999 74700.00000 0 2981255.534 -17366607.476 -18449316.085 10 0 60999 75600.00000 0 4177855.776 -19155118.906 -16330895.369 10 0 60999 76500.00000 0 5086111.868 -20792188.000 -13895567.097 10 0 60999 77400.00000 0 5716293.259 -22215982.496 -11190697.177 10 0 60999 78300.00000 0 6090657.825 -23370046.499 -8268835.093 10 0 60999 79200.00000 0 6242247.542 -24205641.185 -5186692.273 10 0 60999 80100.00000 0 6213234.988 -24683780.022 -2004043.105 10 0 60999 81000.00000 0 6052891.730 -24776874.252 1217430.209 10 0 60999 81900.00000 0 5815265.121 -24469920.631 4415326.805 10 0 60999 82800.00000 0 5556661.867 -23761182.541 7527727.683 10 0 60999 83700.00000 0 5333044.538 -22662336.551 10494384.924 10 0 60999 84600.00000 0 5197450.435 -21198078.597 13257877.345 10 0 60999 85500.00000 0 5197541.165 -19405206.214 15764711.053 10 0 61000 0.00000 0 5373385.596 -17331214.857 17966344.401 10 0 61000 900.00000 0 5755569.242 -15032464.876 19820119.654 10 0 61000 1800.00000 0 6363709.262 -12571997.164 21290081.389 10 0 61000 2700.00000 0 7205438.041 -10017083.259 22347670.545 10 0 61000 3600.00000 0 8275898.657 -7436612.867 22972278.250 10 0 61000 4500.00000 0 9557774.748 -4898424.685 23151650.188 10 0 61000 5400.00000 0 11021855.276 -2466690.068 22882133.316 10 0 61000 6300.00000 0 12628112.654 -199456.873 22168759.638 10 0 61000 7200.00000 0 14327251.371 1853545.366 21025164.423 10 0 61000 8100.00000 0 16062664.564 3652748.327 19473339.221 10 0 61000 9000.00000 0 17772718.661 5170159.342 17543222.912 10 0 61000 9900.00000 0 19393271.993 6390288.345 15272137.139 10 0 61000 10800.00000 0 20860322.832 7310548.305 12704075.542 10 0 61000 11700.00000 0 22112676.165 7941112.019 9888859.241 10 0 61000 12600.00000 0 23094516.840 8304230.947 6881174.055 10 0 61000 13500.00000 0 23757780.049 8433044.593 3739507.669 10 0 61000 14400.00000 0 24064217.944 8369930.817 525007.420 10 0 61000 15300.00000 0 23987073.691 8164467.261 -2699718.490 10 0 61000 16200.00000 0 23512290.590 7871091.087 -5871832.013 10 0 61000 17100.00000 0 22639203.665 7546557.403 -8929503.246 10 0 61000 18000.00000 0 21380683.138 7247305.722 -11813129.661 10 0 61000 18900.00000 0 19762722.831 7026847.812 -14466511.304 10 0 61000 19800.00000 0 17823490.298 6933289.424 -16837957.643 10 0 61000 20700.00000 0 15611878.608 7007092.544 -18881303.276 10 0 61000 21600.00000 0 13185621.020 7279174.242 -20556811.973 10 0 61000 22500.00000 0 10609048.175 7769423.549 -21831951.073 10 0 61000 23400.00000 0 7950582.514 8485699.589 -22682021.186 10 0 61000 24300.00000 0 5280075.325 9423353.454 -23090629.409 10 0 61000 25200.00000 0 2666097.998 10565293.803 -23049997.620 10 0 61000 26100.00000 0 173300.555 11882593.023 -22561100.790 10 0 61000 27000.00000 0 -2140052.933 13335607.845 -21633633.736 10 0 61000 27900.00000 0 -4224270.330 14875566.741 -20285808.030 10 0 61000 28800.00000 0 -6040049.225 16446556.860 -18543984.065 10 0 61000 29700.00000 0 -7559852.708 17987826.679 -16442146.309 10 0 61000 30600.00000 0 -8768788.073 19436307.555 -14021232.698 10 0 61000 31500.00000 0 -9664954.244 20729248.400 -11328331.751 10 0 61000 32400.00000 0 -10259245.970 21806853.217 -8415763.420 10 0 61000 33300.00000 0 -10574625.470 22614811.348 -5340061.704 10 0 61000 34200.00000 0 -10644894.253 23106614.914 -2160878.894 10 0 61000 35100.00000 0 -10513018.508 23245567.019 1060167.423 10 0 61000 36000.00000 0 -10229079.811 23006397.246 4260682.475 10 0 61000 36900.00000 0 -9847938.214 22376417.399 7378694.882 10 0 61000 37800.00000 0 -9426706.460 21356169.596 10353847.037 10 0 61000 38700.00000 0 -9022141.599 19959539.783 13128552.960 10 0 61000 39600.00000 0 -8688063.464 18213331.843 15649102.067 10 0 61000 40500.00000 0 -8472908.111 16156319.578 17866688.448 10 0 61000 41400.00000 0 -8417518.580 13837815.224 19738346.794 10 0 61000 42300.00000 0 -8553265.426 11315812.892 21227777.746 10 0 61000 43200.00000 0 -8900575.877 8654782.638 22306047.582 10 0 61000 44100.00000 0 -9467933.625 5923205.089 22952149.268 10 0 61000 45000.00000 0 -10251391.978 3190947.233 23153414.266 10 0 61000 45900.00000 0 -11234622.030 526586.540 22905767.048 10 0 61000 46800.00000 0 -12389495.467 -2005207.074 22213816.829 10 0 61000 47700.00000 0 -13677179.526 -4346123.990 21090783.832 10 0 61000 48600.00000 0 -15049700.273 -6446401.274 19558260.259 10 0 61000 49500.00000 0 -16451910.656 -8266652.299 17645809.079 10 0 61000 50400.00000 0 -17823782.417 -9779263.418 15390406.844 10 0 61000 51300.00000 0 -19102926.926 -10969299.231 12835739.774 10 0 61000 52200.00000 0 -20227239.605 -11834878.240 10031365.445 10 0 61000 53100.00000 0 -21137556.685 -12387002.688 7031755.406 10 0 61000 54000.00000 0 -21780211.781 -12648849.497 3895236.795 10 0 61000 54900.00000 0 -22109383.288 -12654552.084 682853.539 10 0 61000 55800.00000 0 -22089131.951 -12447524.758 -2542830.171 10 0 61000 56700.00000 0 -21695040.787 -12078401.182 -5718959.846 10 0 61000 57600.00000 0 -20915386.221 -11602675.222 -8783628.878 10 0 61000 58500.00000 0 -19751789.339 -11078145.446 -11677099.205 10 0 61000 59400.00000 0 -18219318.391 -10562273.187 -14342979.159 10 0 61000 60300.00000 0 -16346037.260 -10109567.734 -16729334.104 10 0 61000 61200.00000 0 -14172018.422 -9769111.010 -18789707.031 10 0 61000 62100.00000 0 -11747861.810 -9582327.847 -20484028.428 10 0 61000 63000.00000 0 -9132781.975 -9581097.161 -21779397.347 10 0 61000 63900.00000 0 -6392344.183 -9786284.402 -22650718.473 10 0 61000 64800.00000 0 -3595944.622 -10206757.371 -23081183.263 10 0 61000 65700.00000 0 -814140.324 -10838926.632 -23062586.520 10 0 61000 66600.00000 0 1884059.666 -11666829.293 -22595473.194 10 0 61000 67500.00000 0 4433829.274 -12662751.804 -21689113.647 10 0 61000 68400.00000 0 6776977.498 -13788364.677 -20361308.904 10 0 61000 69300.00000 0 8864116.689 -14996320.507 -18638030.739 10 0 61000 70200.00000 0 10656458.335 -16232247.362 -16552904.451 10 0 61000 71100.00000 0 12127163.563 -17437053.179 -14146545.138 10 0 61000 72000.00000 0 13262194.292 -18549444.021 -11465760.954 10 0 61000 72900.00000 0 14060631.975 -19508550.292 -8562639.217 10 0 61000 73800.00000 0 14534453.061 -20256550.774 -5493533.331 10 0 61000 74700.00000 0 14707772.854 -20741184.600 -2317970.319 10 0 61000 75600.00000 0 14615591.503 -20918046.196 902499.947 10 0 61000 76500.00000 0 14302096.368 -20752567.416 4105491.745 10 0 61000 77400.00000 0 13818593.199 -20221604.213 7228984.074 10 0 61000 78300.00000 0 13221153.759 -19314561.743 10212512.116 10 0 61000 79200.00000 0 12568078.966 -18034010.916 12998327.254 10 0 61000 80100.00000 0 11917283.991 -16395770.475 15532504.008 10 0 61000 81000.00000 0 11323714.771 -14428450.640 17765973.448 10 0 61000 81900.00000 0 10836903.799 -12172476.456 19655464.108 10 0 61000 82800.00000 0 10498767.243 -9678630.250 21164333.116 10 0 61000 83700.00000 0 10341735.373 -7006172.252 22263272.334 10 0 61000 84600.00000 0 10387294.543 -4220615.570 22930876.432 10 0 61000 85500.00000 0 10645002.117 -1391246.021 23154062.183 99